{"data":{"norad_id":63271,"intl_designator":"2025-053G","name":"STARLINK-11620 [DTC]","alt_names":[],"object_type":"PAYLOAD","status":"ACTIVE","operator":null,"country":"US","launch_date":"2025-03-15","launch_site_code":"AFETR","launch_vehicle":null,"mission":null,"orbit_class":"UNKNOWN","rcs_meters":null,"size_class":null,"mass_kg":null,"dimensions":null,"purposes":["comms"],"wikipedia_slug":null,"has_3d_model":false,"image_url":null,"decayed_at":null,"tle_current":{"epoch":"2026-05-25T01:05:06.392832Z","epoch_age_seconds":74212,"freshness":"FRESH","line1":"1 63271U 25053G   26145.04521288  .00176369  00000+0  13435-2 0  9991","line2":"2 63271  43.0030  12.3965 0003878 272.4578  87.5845 15.70931467 69676","mean_motion":15.70931467,"eccentricity":0.0003878,"inclination_deg":43.003,"raan_deg":12.3965,"arg_perigee_deg":272.4578,"mean_anomaly_deg":87.5845,"bstar":0.0013435,"rev_number":6967,"period_min":91.665360981658,"perigee_km":353.62205551311,"apogee_km":358.84523338495,"semimajor_km":6734.370644449,"source":"CELESTRAK","updated_at":"2026-05-25T13:38:19.925016Z"}}}